Hope, British Columbia

9:47 PM PST on November 17, 2017 (GMT -0800)
Hope

Weather History for CYHE - May, 2014

Change the Weather History Date:

Wednesday, May 7, 2014

  Actual Average Record
Temperature  
Mean Temperature 57 °F -  
Max Temperature 67 °F 66 °F 79 °F (2016)
Min Temperature 47 °F 47 °F 37 °F (1999)
Degree Days  
Heating Degree Days 8    
Growing Degree Days 7 (Base 50)    
Moisture  
Dew Point 47 °F    
Average Humidity 70    
Maximum Humidity 100    
Minimum Humidity 36    
Precipitation  
Precipitation 0.00 in 0.12 in - ()
Sea Level Pressure  
Sea Level Pressure 29.96 in    
Wind  
Wind Speed 4 mph ()    
Max Wind Speed 14 mph    
Max Gust Speed 20 mph    
Visibility 9.0 miles    
Events      
Averages and records for this station are not official NWS values.
T = Trace of Precipitation, MM = Missing Value Source: Averaged Metar Reports

Daily Weather History Graph

Daily Weather History Graph

Search for Another Location

Airport or City:

Trip Planner

Search our weather history database for the weather conditions in past years. The results will help you decide how hot, cold, wet, or windy it might be!

Date:

Astronomy

May. 07, 2014 Rise Set
Actual Time 5:33 AM PDT 8:31 PM PDT
Civil Twilight 4:56 AM PDT 9:09 PM PDT
Nautical Twilight 4:08 AM PDT 9:57 PM PDT
Astronomical Twilight 3:10 AM PDT 10:57 PM PDT
Moon 1:04 PM PDT (5/7) 2:14 AM PDT (5/7)
Length of Visible Light 16h 12m
Length of Day
14h 58m
First Quarter, 56% of the Moon is Illuminated
May 7
First Quarter
May 14
Full
May 21
Last Quarter
May 28
New
Jun 5
First Quarter

Hourly Weather History & Observations

Time (PDT) Temp. Dew Point Humidity Pressure Visibility Wind Dir Wind Speed Gust Speed Precip Events Conditions
12:00 AM 50.0 °F 48.2 °F 94% 30.03 in 9.0 mi Calm Calm - N/A   Overcast
1:00 AM 48.2 °F 48.2 °F 100% 30.03 in 9.0 mi Calm Calm - N/A   Mostly Cloudy
2:00 AM 49 °F 47 °F 89% 30.03 in - NE 2.3 mph - -  
2:00 AM 50.0 °F 46.4 °F 87% 30.03 in 9.0 mi Variable 2.3 mph - N/A   Overcast
3:00 AM 48.2 °F 46.4 °F 93% 30.03 in 9.0 mi Calm Calm - N/A   Overcast
4:00 AM 50.0 °F 46.4 °F 87% 30.04 in 9.0 mi Variable 2.3 mph - N/A   Overcast
5:00 AM 49 °F 45 °F 83% 30.04 in - Calm Calm - -  
5:00 AM 48.2 °F 46.4 °F 93% 30.03 in 9.0 mi Calm Calm - N/A   Overcast
6:00 AM 50.0 °F 44.6 °F 82% 30.03 in 9.0 mi Variable 2.3 mph - N/A   Overcast
7:00 AM 48.2 °F 46.4 °F 93% 30.03 in 9.0 mi ESE 3.5 mph - N/A   Overcast
8:00 AM 51 °F 47 °F 83% 30.04 in - ENE 2.3 mph - -  
8:00 AM 50.0 °F 46.4 °F 87% 30.04 in 9.0 mi East 3.5 mph - N/A   Overcast
9:00 AM 55.4 °F 46.4 °F 72% 30.02 in 9.0 mi East 4.6 mph - N/A   Mostly Cloudy
10:00 AM 59.0 °F 46.4 °F 63% 30.01 in 9.0 mi WNW 4.6 mph - N/A   Clear
11:00 AM 59 °F 50 °F 65% 30.01 in - WNW 6.9 mph - -  
11:00 AM 60.8 °F 50.0 °F 68% 30.01 in 9.0 mi NW 6.9 mph - N/A   Overcast
12:00 PM 62.6 °F 50.0 °F 63% 29.99 in 9.0 mi WNW 8.1 mph - N/A   Mostly Cloudy
1:00 PM 62.6 °F 46.4 °F 55% 29.96 in 9.0 mi WNW 8.1 mph - N/A   Scattered Clouds
2:00 PM 64 °F 45 °F 39% 29.93 in - WSW 11.5 mph - -  
2:00 PM 64.4 °F 46.4 °F 52% 29.93 in 9.0 mi West 12.7 mph - N/A   Clear
3:00 PM 66.2 °F 46.4 °F 49% 29.90 in 9.0 mi West 9.2 mph - N/A   Clear
4:00 PM 68.0 °F 46.4 °F 46% 29.88 in 9.0 mi West 13.8 mph 19.6 mph N/A   Clear
5:00 PM 66 °F 45 °F 36% 29.87 in - West 12.7 mph - -  
5:00 PM 66.2 °F 44.6 °F 46% 29.87 in 9.0 mi West 13.8 mph 19.6 mph N/A   Clear
6:00 PM 66.2 °F 44.6 °F 46% 29.86 in 9.0 mi WNW 11.5 mph 18.4 mph N/A   Clear
7:00 PM 64.4 °F 46.4 °F 52% 29.86 in 9.0 mi West 9.2 mph - N/A   Clear
8:00 PM 62 °F 45 °F 43% 29.86 in - West 6.9 mph - -  
8:00 PM 62.6 °F 46.4 °F 55% 29.87 in 9.0 mi West 8.1 mph - N/A   Clear
9:00 PM 57.2 °F 46.4 °F 67% 29.88 in 9.0 mi SW 9.2 mph - N/A   Clear
10:00 PM 53.6 °F 46.4 °F 77% 29.88 in 9.0 mi Calm Calm - N/A   Partly Cloudy
11:00 PM 49 °F 46 °F 86% 29.88 in - SE 1.2 mph - -  
11:00 PM 50.0 °F 46.4 °F 87% 29.88 in 9.0 mi Variable 2.3 mph - N/A   Clear